When you browse on this site, cookies collect data to enhance your experience and personalize the content and advertising you see.
Visit our Privacy Policy to learn more. By continuing to use the site, you agree to this use of cookies and data.
EN

Hourly Weather Lowech

Today, 10 July, Friday

Time Temperature Precipitation Wind Pressure Humidity
00:00 +20°C° 0 mm 1 mps 739 mmHg 75%
01:00 +19°C° 0 mm 1 mps 739 mmHg 76%
02:00 +19°C° 0 mm 1 mps 739 mmHg 77%
03:00 +19°C° 0 mm 1 mps 739 mmHg 77%
04:00 +19°C° 0 mm 1 mps 739 mmHg 78%
05:00 +18°C° 0 mm 1 mps 739 mmHg 78%
06:00 +20°C° 0 mm 1 mps 739 mmHg 73%
07:00 +22°C° 0 mm 1 mps 739 mmHg 67%
08:00 +24°C° 0 mm 1 mps 739 mmHg 61%
09:00 +26°C° 0 mm 2 mps 739 mmHg 58%
10:00 +27°C° 0 mm 3 mps 739 mmHg 54%
11:00 +28°C° 0 mm 4 mps 739 mmHg 50%
12:00 +28°C° 0 mm 4 mps 739 mmHg 49%
13:00 +29°C° 0 mm 4 mps 739 mmHg 48%
14:00 +29°C° 0 mm 4 mps 738 mmHg 48%
15:00 +29°C° 0 mm 4 mps 738 mmHg 49%
16:00 +29°C° 0 mm 4 mps 738 mmHg 51%
17:00 +28°C° 0 mm 4 mps 738 mmHg 53%
18:00 +26°C° 0 mm 3 mps 738 mmHg 59%
19:00 +24°C° 0 mm 3 mps 738 mmHg 65%
20:00 +21°C° 0 mm 2 mps 737 mmHg 71%
21:00 +21°C° 0 mm 2 mps 738 mmHg 72%
22:00 +20°C° 0 mm 2 mps 738 mmHg 73%
23:00 +19°C° 0 mm 2 mps 738 mmHg 74%

Tomorrow, 11 July, Saturday

Time Temperature Precipitation Wind Pressure Humidity
00:00 +19°C° 0 mm 2 mps 738 mmHg 75%
01:00 +18°C° 0 mm 2 mps 738 mmHg 76%
02:00 +18°C° 0 mm 2 mps 738 mmHg 78%
03:00 +18°C° 0 mm 1 mps 738 mmHg 78%
04:00 +18°C° 0 mm 1 mps 738 mmHg 79%
05:00 +18°C° 0 mm 1 mps 738 mmHg 79%
06:00 +19°C° 0 mm 1 mps 738 mmHg 74%
07:00 +21°C° 0 mm 1 mps 738 mmHg 69%
08:00 +23°C° 0 mm 1 mps 738 mmHg 64%
09:00 +25°C° 0 mm 2 mps 738 mmHg 59%
10:00 +26°C° 0 mm 2 mps 738 mmHg 55%
11:00 +28°C° 0 mm 2 mps 738 mmHg 50%
12:00 +28°C° 0 mm 3 mps 737 mmHg 49%
13:00 +29°C° 0 mm 3 mps 737 mmHg 48%
14:00 +30°C° 0 mm 3 mps 736 mmHg 47%
15:00 +29°C° 0 mm 3 mps 736 mmHg 49%
16:00 +29°C° 0 mm 3 mps 736 mmHg 51%
17:00 +29°C° 0 mm 3 mps 735 mmHg 53%
18:00 +27°C° 0 mm 2 mps 735 mmHg 61%
19:00 +25°C° 0 mm 2 mps 735 mmHg 69%
20:00 +24°C° 0 mm 1 mps 735 mmHg 76%
21:00 +23°C° 0 mm 1 mps 735 mmHg 77%
22:00 +22°C° 0 mm 1 mps 736 mmHg 78%
23:00 +21°C° 0 mm 1 mps 736 mmHg 79%

Day after tomorrow, 12 July, Sunday

Time Temperature Precipitation Wind Pressure Humidity
00:00 +21°C° 0 mm 1 mps 735 mmHg 81%
01:00 +20°C° 0 mm 1 mps 735 mmHg 82%
02:00 +20°C° 0 mm 1 mps 735 mmHg 83%
03:00 +20°C° 0 mm 1 mps 735 mmHg 84%
04:00 +19°C° 0 mm 1 mps 735 mmHg 85%
05:00 +19°C° 0 mm 1 mps 735 mmHg 87%
06:00 +21°C° 0 mm 1 mps 735 mmHg 82%
07:00 +21°C° 0 mm 2 mps 735 mmHg 76%
08:00 +24°C° 0 mm 2 mps 736 mmHg 71%
09:00 +25°C° 0 mm 3 mps 736 mmHg 68%
10:00 +26°C° 0 mm 4 mps 736 mmHg 65%
11:00 +27°C° 0 mm 4 mps 736 mmHg 62%
12:00 +27°C° 0.1 mm 4 mps 735 mmHg 61%
13:00 +28°C° 0.1 mm 4 mps 735 mmHg 59%
14:00 +28°C° 0.1 mm 4 mps 735 mmHg 57%
15:00 +28°C° 0.1 mm 5 mps 735 mmHg 58%
16:00 +27°C° 0.1 mm 5 mps 735 mmHg 59%
17:00 +27°C° 0.1 mm 6 mps 734 mmHg 60%
18:00 +25°C° 0 mm 5 mps 735 mmHg 63%
19:00 +23°C° 0 mm 5 mps 735 mmHg 65%
20:00 +21°C° 0 mm 4 mps 735 mmHg 67%
21:00 +20°C° 0 mm 4 mps 735 mmHg 69%
22:00 +19°C° 0 mm 4 mps 735 mmHg 71%
23:00 +17°C° 0 mm 4 mps 736 mmHg 72%

13 July, Monday

Time Temperature Precipitation Wind Pressure Humidity
00:00 +17°C° 0 mm 4 mps 735 mmHg 74%
01:00 +16°C° 0 mm 3 mps 735 mmHg 75%
02:00 +16°C° 0 mm 3 mps 735 mmHg 76%
03:00 +14°C° 0 mm 4 mps 736 mmHg 77%
04:00 +13°C° 0 mm 4 mps 736 mmHg 78%
05:00 +13°C° 0 mm 4 mps 736 mmHg 78%
06:00 +14°C° 0 mm 4 mps 736 mmHg 75%
07:00 +15°C° 0 mm 4 mps 736 mmHg 71%
08:00 +16°C° 0 mm 5 mps 736 mmHg 67%
09:00 +18°C° 0 mm 4 mps 737 mmHg 65%
10:00 +19°C° 0 mm 4 mps 737 mmHg 62%
11:00 +20°C° 0 mm 4 mps 737 mmHg 59%
12:00 +21°C° 0 mm 3 mps 737 mmHg 57%
13:00 +22°C° 0 mm 3 mps 737 mmHg 56%
14:00 +24°C° 0 mm 3 mps 736 mmHg 55%
15:00 +24°C° 0 mm 3 mps 736 mmHg 57%
16:00 +24°C° 0 mm 3 mps 736 mmHg 58%
17:00 +24°C° 0 mm 3 mps 736 mmHg 59%
18:00 +21°C° 0 mm 2 mps 736 mmHg 66%
19:00 +19°C° 0 mm 2 mps 736 mmHg 74%
20:00 +19°C° 0 mm 1 mps 736 mmHg 81%
21:00 +18°C° 0 mm 1 mps 736 mmHg 83%
22:00 +16°C° 0 mm 1 mps 736 mmHg 84%
23:00 +16°C° 0 mm 1 mps 737 mmHg 86%

14 July, Tuesday

Time Temperature Precipitation Wind Pressure Humidity
00:00 +15°C° 0 mm 1 mps 737 mmHg 86%
01:00 +15°C° 0 mm 1 mps 737 mmHg 87%
02:00 +14°C° 0 mm 1 mps 737 mmHg 87%
03:00 +14°C° 0 mm 1 mps 737 mmHg 87%
04:00 +14°C° 0 mm 1 mps 737 mmHg 88%
05:00 +14°C° 0 mm 1 mps 737 mmHg 88%
06:00 +15°C° 0 mm 1 mps 737 mmHg 82%
07:00 +18°C° 0 mm 1 mps 737 mmHg 75%
08:00 +20°C° 0 mm 1 mps 737 mmHg 69%
09:00 +22°C° 0 mm 1 mps 737 mmHg 63%
10:00 +23°C° 0 mm 1 mps 737 mmHg 58%
11:00 +25°C° 0 mm 1 mps 737 mmHg 52%
12:00 +25°C° 0 mm 1 mps 737 mmHg 50%
13:00 +26°C° 0 mm 1 mps 737 mmHg 48%
14:00 +27°C° 0 mm 1 mps 736 mmHg 46%
15:00 +27°C° 0 mm 2 mps 736 mmHg 47%
16:00 +26°C° 0 mm 2 mps 736 mmHg 47%
17:00 +26°C° 0 mm 2 mps 735 mmHg 48%
18:00 +24°C° 0 mm 2 mps 736 mmHg 55%
19:00 +23°C° 0 mm 2 mps 736 mmHg 61%
20:00 +20°C° 0 mm 2 mps 736 mmHg 67%
21:00 +19°C° 0 mm 2 mps 736 mmHg 69%
22:00 +18°C° 0 mm 2 mps 736 mmHg 71%
23:00 +17°C° 0 mm 2 mps 737 mmHg 73%

15 July, Wednesday

Time Temperature Precipitation Wind Pressure Humidity
00:00 +17°C° 0 mm 2 mps 737 mmHg 74%
01:00 +16°C° 0 mm 2 mps 737 mmHg 76%
02:00 +16°C° 0 mm 1 mps 737 mmHg 77%
03:00 +16°C° 0 mm 1 mps 737 mmHg 76%
04:00 +16°C° 0 mm 1 mps 737 mmHg 76%
05:00 +15°C° 0 mm 1 mps 737 mmHg 75%
06:00 +18°C° 0 mm 1 mps 738 mmHg 70%
07:00 +21°C° 0 mm 1 mps 738 mmHg 65%
08:00 +21°C° 0 mm 0 mps 738 mmHg 60%
09:00 +24°C° 0 mm 1 mps 738 mmHg 55%
10:00 +25°C° 0 mm 1 mps 738 mmHg 50%
11:00 +27°C° 0 mm 1 mps 738 mmHg 45%
12:00 +28°C° 0 mm 1 mps 738 mmHg 43%
13:00 +28°C° 0 mm 2 mps 738 mmHg 41%
14:00 +29°C° 0 mm 2 mps 737 mmHg 39%
15:00 +29°C° 0 mm 2 mps 737 mmHg 39%
16:00 +28°C° 0 mm 2 mps 737 mmHg 40%
17:00 +28°C° 0 mm 1 mps 737 mmHg 40%
18:00 +26°C° 0 mm 1 mps 736 mmHg 47%
19:00 +24°C° 0 mm 1 mps 736 mmHg 53%
20:00 +22°C° 0 mm 1 mps 736 mmHg 59%
21:00 +21°C° 0 mm 1 mps 737 mmHg 61%
22:00 +20°C° 0 mm 1 mps 737 mmHg 64%
23:00 +20°C° 0 mm 1 mps 737 mmHg 66%
Show more